contact:dominique.lefevre@mio.osupytheas.fr, maurice.libes@osupytheas.fr
Project:EMSO Ligure-ouest http://www.emso-fr.org/EMSO-France
Sensor Aquadopp, line 13 Serial AQD14315 
DOI : "https://doi.org/10.17882/74513; https://doi.org/10.17882/83244" 
Title:EMSO Ligure Ouest : Data ligne ALBATROSS capteur AQUADOPP - deploiement 2021
Id,Date,Profondeur,Latitude,Longitude,X_East,Y_North,Z_Up,Amplitude_X,Amplitude_Y,Amplitude_Z,Batterie,SoundSpeed,Heading,Pitch,Roll,Pressure,Temperature,Speed,Direction
, , m, degrees North, degrees East, m.s-1, m.s-1,m.s-1, 1, 1, 1, Volt, m.s-1, degree, degree, degree, dbar, degree_C, m.s-1, degree
07,2021-11-30T21:30:00,1500.0,42.79,6.0312,0.01,-0.048,-0.01,59.0,61.0,60.0,12.6,1504.1,145.0,-0.1,-0.2,1472.788,13.12,0.049,168.2
07,2021-11-30T22:00:00,1500.0,42.79,6.0312,0.005,-0.057,0.004,58.0,60.0,60.0,12.6,1504.1,157.4,-0.1,-0.1,1472.808,13.13,0.057,175.0
07,2021-11-30T22:30:00,1500.0,42.79,6.0312,0.016,-0.034,0.005,60.0,59.0,59.0,12.6,1504.1,144.9,-0.1,-0.3,1472.799,13.13,0.037,154.8
07,2021-11-30T23:00:00,1500.0,42.79,6.0312,0.021,-0.056,-0.004,58.0,60.0,58.0,12.6,1504.1,136.9,0.0,-0.1,1472.787,13.13,0.059,159.4
07,2021-11-30T23:30:00,1500.0,42.79,6.0312,0.018,-0.03,0.004,60.0,58.0,62.0,12.6,1504.1,134.8,-0.1,0.0,1472.767,13.13,0.034,149.0
07,2021-12-01T00:00:00,1500.0,42.79,6.0312,0.017,-0.039,-0.001,59.0,60.0,60.0,12.6,1504.1,135.5,-0.1,-0.1,1472.784,13.13,0.042,156.5
07,2021-12-01T00:30:00,1500.0,42.79,6.0312,0.023,-0.026,0.012,59.0,60.0,58.0,12.6,1504.1,127.7,0.1,-0.3,1472.792,13.13,0.034,138.5
07,2021-12-01T01:00:00,1500.0,42.79,6.0312,0.028,-0.028,0.005,58.0,60.0,58.0,12.6,1504.1,126.2,-0.3,-0.1,1472.781,13.13,0.039,135.0
07,2021-12-01T01:30:00,1500.0,42.79,6.0312,0.031,-0.033,0.008,58.0,60.0,59.0,12.6,1504.1,135.9,0.0,0.0,1472.869,13.13,0.045,136.8
07,2021-12-01T02:00:00,1500.0,42.79,6.0312,0.021,-0.039,-0.023,59.0,61.0,60.0,12.6,1504.1,145.0,-0.4,-0.3,1472.872,13.13,0.044,151.7
07,2021-12-01T02:30:00,1500.0,42.79,6.0312,0.041,-0.049,-0.005,60.0,60.0,59.0,12.6,1504.1,121.1,-0.3,-0.2,1472.86,13.13,0.063,140.1
07,2021-12-01T03:00:00,1500.0,42.79,6.0312,0.026,-0.044,0.007,59.0,61.0,60.0,12.6,1504.1,145.1,-0.1,-0.2,1472.881,13.13,0.051,149.4
07,2021-12-01T03:30:00,1500.0,42.79,6.0312,0.026,-0.032,0.0,60.0,60.0,58.0,12.6,1504.1,142.0,-0.5,-0.1,1472.893,13.13,0.041,140.9
07,2021-12-01T04:00:00,1500.0,42.79,6.0312,0.043,-0.045,0.001,58.0,59.0,58.0,12.6,1504.1,137.5,-0.1,-0.3,1472.907,13.13,0.062,136.3
07,2021-12-01T04:30:00,1500.0,42.79,6.0312,0.018,-0.049,0.007,58.0,59.0,59.0,12.6,1504.1,152.5,-0.1,-0.4,1472.902,13.13,0.052,159.8
07,2021-12-01T05:00:00,1500.0,42.79,6.0312,0.021,-0.044,0.017,57.0,60.0,59.0,12.6,1504.1,152.5,-0.1,-0.2,1472.93,13.13,0.048,154.5
07,2021-12-01T05:30:00,1500.0,42.79,6.0312,0.022,-0.058,0.005,58.0,59.0,59.0,12.6,1504.1,162.9,-0.5,0.0,1472.923,13.13,0.062,159.2
07,2021-12-01T06:00:00,1500.0,42.79,6.0312,0.029,-0.046,0.004,58.0,59.0,59.0,12.6,1504.1,146.4,0.1,-0.3,1472.918,13.13,0.054,147.8
07,2021-12-01T06:30:00,1500.0,42.79,6.0312,0.035,-0.045,-0.001,57.0,59.0,57.0,12.6,1504.1,135.0,0.0,-0.2,1472.88,13.13,0.057,142.1
07,2021-12-01T07:00:00,1500.0,42.79,6.0312,0.012,-0.068,-0.001,58.0,58.0,58.0,12.6,1504.1,154.0,-0.6,-0.3,1472.923,13.13,0.069,170.0
07,2021-12-01T07:30:00,1500.0,42.79,6.0312,0.0,-0.065,-0.001,58.0,58.0,58.0,12.6,1504.1,157.5,-0.2,-0.3,1472.879,13.13,0.064,180.0
07,2021-12-01T08:00:00,1500.0,42.79,6.0312,0.022,-0.055,-0.001,57.0,56.0,57.0,12.6,1504.1,153.9,0.0,0.1,1472.845,13.13,0.059,158.2
07,2021-12-01T08:30:00,1500.0,42.79,6.0312,0.01,-0.053,-0.01,56.0,57.0,57.0,12.6,1504.1,171.1,-0.2,-0.2,1472.876,13.13,0.053,169.3
07,2021-12-01T09:00:00,1500.0,42.79,6.0312,-0.007,-0.039,-0.012,56.0,56.0,56.0,12.6,1504.1,184.4,-0.4,0.0,1472.852,13.13,0.039,190.2
07,2021-12-01T09:30:00,1500.0,42.79,6.0312,0.001,-0.047,0.001,57.0,57.0,58.0,12.6,1504.1,177.0,-0.6,-0.4,1472.856,13.13,0.047,178.8
07,2021-12-01T10:00:00,1500.0,42.79,6.0312,-0.002,-0.038,-0.004,55.0,56.0,55.0,12.6,1504.2,180.7,0.0,-0.3,1472.842,13.14,0.038,183.0
07,2021-12-01T10:30:00,1500.0,42.79,6.0312,-0.006,-0.044,0.002,55.0,57.0,54.0,12.6,1504.2,183.8,-0.4,-0.2,1472.817,13.14,0.044,187.8
07,2021-12-01T11:00:00,1500.0,42.79,6.0312,0.001,-0.043,-0.01,56.0,57.0,57.0,12.6,1504.2,187.5,-0.6,-0.2,1472.776,13.14,0.043,178.7
07,2021-12-01T11:30:00,1500.0,42.79,6.0312,0.01,-0.028,-0.002,57.0,57.0,56.0,12.6,1504.2,191.1,-0.5,-0.4,1472.821,13.14,0.029,160.4
07,2021-12-01T12:00:00,1500.0,42.79,6.0312,0.012,-0.033,-0.011,58.0,56.0,56.0,12.6,1504.2,193.8,-0.1,-0.3,1472.802,13.14,0.035,160.0
07,2021-12-01T12:30:00,1500.0,42.79,6.0312,0.006,-0.026,0.01,56.0,56.0,56.0,12.6,1504.2,193.1,-0.2,-0.3,1472.824,13.14,0.026,167.0
07,2021-12-01T13:00:00,1500.0,42.79,6.0312,0.005,-0.05,0.007,56.0,57.0,55.0,12.6,1504.1,187.5,0.0,0.0,1472.79,13.13,0.05,174.3
07,2021-12-01T13:30:00,1500.0,42.79,6.0312,0.017,-0.041,-0.015,56.0,55.0,55.0,12.6,1504.1,189.2,-0.1,-0.2,1472.829,13.13,0.044,157.5
07,2021-12-01T14:00:00,1500.0,42.79,6.0312,0.015,-0.054,0.003,55.0,56.0,55.0,12.6,1504.1,186.0,-0.1,-0.3,1472.841,13.13,0.056,164.5
07,2021-12-01T14:30:00,1500.0,42.79,6.0312,0.007,-0.039,0.009,56.0,57.0,56.0,12.6,1504.1,184.7,-0.1,0.0,1472.844,13.13,0.039,169.8
07,2021-12-01T15:00:00,1500.0,42.79,6.0312,-0.003,-0.042,-0.006,55.0,57.0,56.0,12.6,1504.1,185.4,-0.3,-0.3,1472.943,13.13,0.042,184.1
07,2021-12-01T15:30:00,1500.0,42.79,6.0312,0.009,-0.044,-0.003,55.0,56.0,56.0,12.6,1504.1,181.6,-0.3,0.0,1472.938,13.13,0.044,168.4
07,2021-12-01T16:00:00,1500.0,42.79,6.0312,0.008,-0.063,-0.007,54.0,56.0,55.0,12.6,1504.1,188.4,-0.2,0.0,1472.935,13.13,0.063,172.8
07,2021-12-01T16:30:00,1500.0,42.79,6.0312,0.002,-0.048,-0.008,54.0,56.0,55.0,12.6,1504.2,183.5,-0.1,-0.2,1472.947,13.14,0.048,177.6
07,2021-12-01T17:00:00,1500.0,42.79,6.0312,0.009,-0.05,0.002,55.0,55.0,55.0,12.6,1504.2,181.0,0.0,-0.3,1472.955,13.14,0.05,169.8
07,2021-12-01T17:30:00,1500.0,42.79,6.0312,-0.011,-0.051,-0.01,53.0,55.0,55.0,12.6,1504.2,197.5,-0.1,-0.1,1472.942,13.14,0.052,192.2
07,2021-12-01T18:00:00,1500.0,42.79,6.0312,0.0,-0.047,0.003,55.0,55.0,55.0,12.6,1504.2,189.1,-0.4,-0.1,1472.913,13.14,0.047,180.0
07,2021-12-01T18:30:00,1500.0,42.79,6.0312,0.0,-0.063,0.001,56.0,56.0,54.0,12.6,1504.2,181.9,-0.2,-0.3,1472.896,13.14,0.062,180.0
07,2021-12-01T19:00:00,1500.0,42.79,6.0312,-0.016,-0.039,0.007,55.0,55.0,55.0,12.6,1504.2,184.4,-0.3,-0.1,1472.894,13.14,0.042,202.3
07,2021-12-01T19:30:00,1500.0,42.79,6.0312,-0.007,-0.048,-0.022,54.0,55.0,55.0,12.6,1504.2,175.8,-0.1,-0.3,1472.845,13.14,0.048,188.3
07,2021-12-01T20:00:00,1500.0,42.79,6.0312,-0.02,-0.044,-0.003,54.0,54.0,54.0,12.6,1504.2,180.2,-0.2,-0.3,1472.834,13.15,0.048,204.4
07,2021-12-01T20:30:00,1500.0,42.79,6.0312,-0.008,-0.047,0.01,55.0,55.0,55.0,12.6,1504.2,176.7,-0.1,-0.3,1472.838,13.15,0.047,189.7
07,2021-12-01T21:00:00,1500.0,42.79,6.0312,-0.029,-0.043,0.003,54.0,55.0,55.0,12.6,1504.2,193.9,-0.2,0.0,1472.783,13.15,0.051,214.0
